Content
SEND FEEDBACK

Daily
Averages
Monthly
Summary
United States of America

SOUTH LAKE TAHOE, CALIFORNIA


Home > North America > United States > California
Elevation: 6263 feet     Latitude: 38 53N     Longitude: 119 59W

WEATHER
 
SELECT A DAY
Number of Records: 176,931;   Date Range: 1/1/95 - 10/18/14
 
SHARE

PRINT THIS DATA

[ ← Previous Day ]
WEATHER ALMANAC - FEBRUARY 13, 2013
[ Next Day → ]
[ °C ]   °F
Weather ElementAverageHighLow
Temperature32.4 °F46.9 °F (2:53 pm)17.1 °F (5:53 am)
Dewpoint18.1 °F24.1 °F (1:53 pm)12 °F (5:53 am)
Humidity58.8 %81 % (3:53 am)36 % (2:53 pm)
Barometer30.34 in30.44 in (7:53 am)30.28 in (2:53 pm)
Wind Speed3.6 mph11.5 mph (3:53 pm)
Wind Gust17.3 mph (3:53 pm)
Weather ElementAverage
Visibility10 mi
Wind DirectionNE (47.8 °)

Weather ElementTotal
Precipitation---
Heating Degree Days33 (Base 65)
Averaged from 23 records on February 13, 2013
WEATHER CONDITIONS BREAKOUT
WIND DIRECTION BREAKOUT
WEATHER BY HOUR - FEBRUARY 13, 2013
[ °C ]   °F
Local TimeTemperatureDewpointHumidityBarometerVisibilityWind DirectionWind SpeedGust SpeedPrecipitationEventsConditions
1:53 AM21.0 °F15.1 °F78 %30.36 in10.0 miCalmClear
2:53 AM19.9 °F14.0 °F78 %30.35 in10.0 miCalmClear
3:53 AM19.0 °F14.0 °F81 %30.35 in10.0 miCalmClear
4:53 AM19.0 °F12.9 °F77 %30.36 in10.0 miCalmClear
5:53 AM17.1 °F12.0 °F81 %30.39 in10.0 miSSW (200°)3.5 mphClear
6:53 AM17.1 °F12.0 °F81 %30.42 in10.0 miCalmClear
7:53 AM17.1 °F12.0 °F81 %30.44 in10.0 miSSW (200°)3.5 mphClear
8:53 AM27.0 °F16.0 °F63 %30.40 in10.0 miSouth (180°)3.5 mphClear
9:53 AM35.1 °F18.0 °F50 %30.38 in10.0 miNE (40°)3.5 mphClear
10:53 AM41.0 °F19.0 °F41 %30.35 in10.0 miEast (90°)3.5 mphClear
11:53 AM43.0 °F21.0 °F42 %30.33 in10.0 miNNE (30°)8.1 mphClear
12:53 PM46.0 °F23.0 °F40 %30.31 in10.0 miVariable6.9 mphClear
1:53 PM46.0 °F24.1 °F42 %30.29 in10.0 miVariable5.8 mphClear
2:53 PM46.9 °F21.0 °F36 %30.28 in10.0 miNNE (20°)9.2 mphClear
3:53 PM46.0 °F21.0 °F37 %30.29 in10.0 miNNE (20°)11.5 mph17.3 mphClear
4:53 PM45.0 °F19.9 °F37 %30.30 in10.0 miESE (120°)5.8 mphClear
5:53 PM44.1 °F19.0 °F37 %30.30 in10.0 miVariable6.9 mphClear
6:53 PM35.1 °F21.9 °F59 %30.35 in10.0 miCalmClear
7:53 PM37.9 °F21.0 °F51 %30.34 in10.0 miCalmClear
8:53 PM37.0 °F19.9 °F50 %30.31 in10.0 miVariable5.8 mphClear
9:53 PM30.0 °F19.9 °F66 %30.31 in10.0 miSSW (200°)4.6 mphClear
10:53 PM28.0 °F19.9 °F72 %30.29 in10.0 miCalmClear
11:53 PM27.0 °F19.0 °F72 %30.30 in10.0 miCalmClear
Hourly data recorded from KTVL, located miles away from South Lake Tahoe, California







STORIES FROM OUR PARTNERS